Location: Bay Creek Structure Number 8 Dam
(37.3901°N, 88.6884°W)
Time: 19:04:05
(UTC+00:00)

Daily predictions for brighter satellites

Satellite Brightness Start Highest point End
(mag) Time Altitude Azimuth Time Altitude Azimuth Time Altitude Azimuth
Envisat 3.0 12:00:18 10° N 12:05:22 75° WNW 12:10:26 10° SSW
USA 234 3.7 12:08:26 10° NNE 12:14:27 40° NNW 12:20:27 10° W
Meteor 1-4 Rocket 3.0 12:11:29 10° NNW 12:14:41 36° W 12:17:51 10° SSW
Cosmos 1937 Rocket 3.8 12:10:01 10° S 12:15:07 76° ESE 12:20:17 10° NNE
Cosmos 2084 3.7 12:11:18 10° NW 12:15:44 62° WSW 12:20:10 10° SSE
ATLAS 2AS CENTAUR R/B 3.2 12:09:32 10° SW 12:17:13 52° NW 12:24:55 10° NNE
DELTA 2 R/B (1) 4.0 22:56:38 10° WNW 23:02:09 66° SSW 23:07:38 10° ESE
USA 215 3.3 22:56:27 10° NE 23:03:02 83° SE 23:09:34 10° SW
Cosmos 2237 Rocket 2.3 23:00:08 10° S 23:05:38 61° ESE 23:11:11 10° NNE
H-2A R/B 2.6 23:01:49 10° SSE 23:06:14 86° ENE 23:10:31 10° NNW
COSMO-SKYMED 1 3.9 23:05:50 10° NE 23:09:06 20° E 23:12:20 10° SE
Cosmos 1743 Rocket 3.6 23:05:05 10° N 23:09:33 67° E 23:13:57 10° SSE
Okean O Rocket 1.7 23:10:00 10° SSE 23:14:13 54° ENE 23:18:28 10° N
YAOGAN 6 2.7 23:11:16 10° S 23:14:57 85° WSW 23:18:37 10° NNW
CRYOSAT 2 4.4 23:11:34 10° NNE 23:16:25 61° E 23:21:15 10° S
Cosmos 405 Rocket 2.7 23:13:44 10° N 23:17:38 68° E 23:21:35 10° SSE
Envisat 3.4 23:12:37 10° S 23:17:40 71° WSW 23:22:45 10° NNW
Sich 1 3.8 23:16:47 10° NNE 23:20:39 30° ENE 23:24:29 10° SE
CORIOLIS 4.2 23:16:47 10° SSE 23:22:05 64° ENE 23:27:27 10° N
Cosmos 1980 3.8 23:17:54 10° SSW 23:23:36 87° WNW 23:29:19 10° NNE
H-2A R/B 3.8 23:25:29 12° ENE 23:25:59 12° ENE 23:27:46 10° NE
Cosmos 1805 Rocket 3.7 23:25:25 10° N 23:29:47 53° E 23:34:07 10° SSE
Cosmos 389 Rocket 2.6 23:28:58 10° S 23:32:17 49° E 23:35:37 10° NNE
USA 267 4.1 23:27:58 11° E 23:33:16 30° NNE 23:38:46 10° NNW
Cosmos 1151 Rocket 4.0 23:30:21 10° SE 23:33:52 25° E 23:37:24 10° NE
Cosmos 1666 Rocket 4.4 23:32:01 10° NNE 23:35:49 28° ENE 23:39:37 10° SE
Cosmos 1606 2.7 23:33:03 10° S 23:36:53 64° E 23:40:45 10° NNE
SMAP 3.3 23:32:16 10° S 23:36:55 74° WSW 23:41:35 10° NNW
BREEZE-M DEB (TANK) 3.6 23:43:50 10° W 23:46:19 24° NW 23:47:24 16° NNE
SL-16 R/B 2.4 23:47:29 10° S 23:52:56 52° ESE 23:57:37 14° NE
Lacrosse 5 rocket 1.6 23:51:19 10° SSW 23:54:47 39° SE 23:55:53 30° E
Cosmos 1943 Rocket 3.7 23:51:41 10° NNE 23:54:14 16° NE 23:54:14 16° NE
H-2A R/B 4.3 23:52:10 10° NNW 23:55:30 23° WNW 23:58:50 10° WSW
Abrixas rocket 2.2 23:53:01 10° NW 23:55:40 40° NNE 23:55:50 40° NE
